User: anonymous   Login
Location: ??
(31.9467°N, 34.8903°E)
Time: 16:00:00
(UTC+00:00)
Language:

Cosmos 1300 - Orbit

View from above orbital plane
View from above orbital plane
View from above satellite
View from above satellite

Ground track
Ground track

The orbit data is extracted from the following two-line orbital elements,

1 12785U 81082A   21016.81765344  .00000532  00000-0  24680-4 0  9994
2 12785  82.5019 217.3078 0002226  57.1854 313.3554 15.17917579150215
Epoch (UTC): 16 January 2021 19:37:25
Eccentricity: 0.0002226
inclination: 82.5019°
perigee height: 510 km
apogee height: 513 km
right ascension of ascending node: 217.3078°
argument of perigee: 57.1854°
revolutions per day: 15.17917579
mean anomaly at epoch: 313.3554°
orbit number at epoch: 15021

The dashed part of the orbit path shows where the satellite is in the earth's shadow,  

DLR